Location: Fort Worth, Tx
(32.7431°N, 97.3695°W)
Time: 05:18:49
(UTC-05:00)

Altair - Pass Details

Date: 06 October 2023
Orbit: 1501 x 1682 km, 47.2° (Epoch: 06 December)

Event Time Altitude Azimuth Distance (km) Brightness Sun altitude
Rises 23:42:41 0° 182° (S) 4,641 - -44.8°
Reaches altitude 10° 23:46:50 10° 165° (SSE) 3,684 - -45.5°
Maximum altitude 23:52:53 19° 124° (ESE) 3,051 - -46.6°
Drops below altitude 10° 23:59:02 10° 83° (E) 3,780 - -47.7°
Sets 00:03:19 0° 67° (ENE) 4,802 - -48.5°
